Location: Kopernik Observatory
(42.0014°N, 76.0372°W)
Time: 14:13:07
(UTC-05:00)

Daily predictions for brighter satellites

Satellite Brightness Start Highest point End
(mag) Time Altitude Azimuth Time Altitude Azimuth Time Altitude Azimuth
Cosmos 1992 Rocket 4.3 18:05:24 10° N 18:10:26 45° ENE 18:15:26 10° SE
Cosmos 1825 4.3 18:08:07 10° SW 18:11:33 32° WNW 18:15:01 10° NNW
Thor Agena Rocket 4.0 18:07:01 10° N 18:12:04 68° WNW 18:17:03 10° SSW
SKYMED 2 3.5 18:08:54 10° NNE 18:13:16 80° ESE 18:17:36 10° S
SJ-6B 3.7 18:09:54 10° SE 18:13:28 30° ENE 18:17:00 10° N
Cosmos 1975 Rocket 3.2 18:09:56 10° N 18:14:11 52° E 18:18:23 10° SSE
METEOR-M 4.3 18:10:57 10° SE 18:16:06 51° ENE 18:21:15 10° N
Tiangong 2 1.0 18:13:04 10° W 18:16:09 74° N 18:19:11 10° E
Nadezhda 1 Rocket 4.1 18:13:30 10° N 18:19:25 48° ENE 18:25:14 10° SSE
Sich 1 Rocket 4.2 18:17:47 10° SSW 18:22:17 63° W 18:26:51 10° N
Cosmos 44 3.6 18:18:55 10° NNW 18:23:07 37° NE 18:27:09 10° ESE
NOAA 12 4.1 18:18:46 10° SSE 18:23:59 62° ENE 18:29:15 10° N
Cosmos 1484 Rocket 4.0 18:20:32 10° S 18:24:24 48° W 18:28:15 10° NNW
GEOS 3 Rocket 3.8 18:21:38 10° NE 18:26:48 57° ESE 18:31:59 10° SSW
ERBS 2.3 18:24:05 10° NW 18:27:35 81° NE 18:31:03 10° SE
DMSP B5D1-3 4.5 18:22:32 10° NNE 18:27:42 77° ESE 18:32:50 10° S
Cosmos 2082 Rocket 3.7 18:22:31 10° SW 18:27:44 37° WNW 18:33:01 10° N
Resurs 01 Rocket 2.6 18:25:51 10° ESE 18:29:29 26° ENE 18:33:08 10° NNE
SL-16 R/B 2.6 18:25:59 10° NNW 18:31:23 43° ENE 18:36:45 10° SE
Cosmos 2360 4.3 18:26:35 10° NNW 18:32:21 88° WSW 18:38:04 10° SSE
DNEPR-1 R/B 4.3 18:29:06 10° NNW 18:33:00 32° NE 18:36:23 12° ESE
Cosmos 1190 Rocket 4.4 18:29:48 10° S 18:34:34 39° ESE 18:39:23 10° NE
RESURS DK-1 4.5 18:32:37 10° WSW 18:36:12 27° NW 18:39:47 10° N
Okean 1 3.9 18:37:39 10° N 18:41:25 36° ENE 18:45:10 10° SE
Spot 2 Rocket 3.9 18:43:02 10° SE 18:47:44 41° ENE 18:52:29 10° N
FREGAT/IRIS 2.5 18:46:12 10° SSE 18:49:16 86° E 18:52:23 10° N
Helios 1B rocket 4.3 18:51:26 14° SE 18:51:26 14° SE 18:52:24 10° SE
Cosmos 1782 Rocket 4.4 18:46:40 10° SSW 18:50:59 55° W 18:55:22 10° N
Cosmos 2322 Rocket 2.2 18:46:05 10° NNW 18:51:41 63° ENE 18:57:14 10° SE
Cosmos 1709 Rocket 4.2 18:46:26 10° SSE 18:52:20 46° E 18:58:12 10° NNE
Cosmos 1633 3.8 18:51:32 10° SE 18:53:50 23° ESE 18:53:50 23° ESE
Cosmos 1346 Rocket 4.4 18:52:50 10° NNW 18:56:32 38° W 19:00:09 10° SSW
Cosmos 1340 3.4 18:54:13 10° NNE 18:57:36 30° ENE 18:58:21 27° E
CZ-2D R/B 4.0 18:57:05 26° E 18:58:06 30° ENE 19:01:27 10° N
Meteor 1-25 Rocket 4.2 18:53:15 10° S 18:58:49 88° E 19:04:31 10° N
Resurs 1-3 3.9 18:55:24 10° SE 18:59:33 43° ENE 19:03:43 10° N
Cosmos 1238 Rocket 4.2 18:57:31 10° NNE 18:58:29 16° NNE 18:58:29 16° NNE
Okean 2 Rocket 3.7 18:56:19 10° SSW 19:00:43 59° W 19:05:09 10° N
Envisat 4.4 19:04:34 20° NE 19:04:34 20° NE 19:07:39 10° NNE
ALOS 2.1 18:59:55 10° SSE 19:04:34 77° ENE 19:09:15 10° N
Meteor 1-11 Rocket 4.3 18:59:36 10° SSE 19:04:46 36° E 19:10:03 10° NNE
HJ-1C 3.2 19:01:55 10° SSE 19:05:17 79° ENE 19:08:41 10° N
Meteor 2-4 Rocket 4.5 19:01:42 10° N 19:06:32 29° ENE 19:07:41 26° E
CENTAUR R/B 3.7 18:59:43 10° NW 19:07:29 61° WSW 19:15:40 10° SSE
COSMOS 2428 4.1 19:03:56 10° N 19:07:52 19° NE 19:08:09 19° NE
Cosmos 1300 Rocket 4.0 19:05:07 10° SSE 19:09:09 37° E 19:13:14 10° NNE
SL-8 R/B 4.4 19:08:28 10° WNW 19:13:09 50° SW 19:16:32 18° SSE
H-2A R/B 2.6 19:10:31 15° SSE 19:13:23 60° ENE 19:17:04 10° N
Spot 1 4.3 19:13:53 38° E 19:14:34 41° ENE 19:18:26 10° N
Cosmos 2151 Rocket 3.6 19:14:08 10° S 19:18:37 82° W 19:23:10 10° N
FENGYUN 3A 3.7 19:16:19 10° S 19:21:43 80° WSW 19:27:10 10° NNW
Cosmos 1818 3.6 19:16:29 10° SSW 19:21:48 57° ESE 19:24:33 28° NE
ATLAS CENTAUR R/B 4.3 19:22:08 10° NW 19:23:35 11° NW 19:25:02 10° NNW
Cosmos 1812 4.1 19:20:10 10° NNW 19:23:49 41° W 19:27:26 10° SSW
DELTA 2 R/B (1) 3.6 19:27:50 10° W 19:33:25 69° S 19:35:05 45° ESE
Cosmos 1602 3.9 19:41:38 10° SSW 19:51:28 - N 19:45:05 68° SW
Cosmos 2360 Rocket 2.1 19:40:19 10° NNW 19:45:58 68° ENE 19:46:58 56° ESE
Cosmos 1461 3.1 19:44:18 10° NW 19:48:16 63° WSW 19:48:30 62° SW
Cosmos 2219 Rocket 3.9 19:46:31 10° N 19:48:54 19° NNE 19:48:54 19° NNE
Cosmos 676 Rocket 4.2 19:47:02 10° SSW 19:52:12 70° WNW 19:57:25 10° NNE
Helios 1A 3.0 19:52:22 75° WSW 19:52:26 76° WSW 19:56:37 10° NNW
Tiangong 2 3.2 19:49:36 10° W 19:51:10 27° W 19:51:10 27° W
Cosmos 407 Rocket 4.4 19:48:51 10° SW 19:53:53 48° WNW 19:59:01 10° N
Cosmos 1023 Rocket 4.4 19:53:59 10° SSW 19:58:28 70° S 19:58:28 70° S
Cosmos 1833 4.1 19:54:09 10° SSW 19:59:52 89° WNW 20:01:51 43° NNE
Meteor 1-19 Rocket 4.5 19:57:57 10° NNW 20:03:34 68° W 20:08:13 16° S
Cosmos 2333 Rocket 4.0 19:59:35 10° N 20:01:48 18° NNE 20:01:48 18° NNE
Resurs 01 Rocket 3.5 20:01:59 10° SSW 20:05:51 30° W 20:09:44 10° NW
SL-16 R/B 4.1 20:10:31 10° NW 20:15:15 28° WSW 20:19:57 10° SSW
Cosmos 2327 Rocket 4.4 20:10:13 10° S 20:17:06 72° NNE 20:22:43 10° N
Cosmos 1140 Rocket 4.2 20:22:21 10° SW 20:26:22 47° WSW 20:26:22 47° WSW
Cosmos 2184 Rocket 4.1 20:26:13 10° SSW 20:32:32 72° W 20:38:51 10° N
Cosmos 2074 Rocket 4.2 20:29:06 10° SSW 20:35:16 65° W 20:41:32 10° N
Envisat 4.5 20:44:45 32° NW 20:44:45 32° NW 20:47:38 10° NNW
COSMOS 2428 4.1 20:47:06 10° NNW 20:50:12 34° NNW 20:50:12 34° NNW
USA 229 DEB 4.3 20:48:06 10° NNW 20:53:17 50° NNW 20:53:17 50° NNW
USA 229 4.3 20:48:12 10° NNW 20:53:22 50° NNW 20:53:22 50° NNW
